Location: Little Arabia
(41.4620°N, 81.7687°W)
Time: 20:35:10
(UTC+00:00)

Cosmos 44 Rocket - Pass Details

Date: 29 October 2020
Orbit: 642 x 748 km, 65.1° (Epoch: 02 December)

Event Time Altitude Azimuth Distance (km) Brightness Sun altitude
Rises 23:06:04 0° 179° (S) 2,963 6.7 -8.3°
Reaches altitude 10° 23:08:38 10° 167° (SSE) 2,071 5.7 -8.7°
Maximum altitude 23:12:30 26° 111° (ESE) 1,324 4.3 -9.4°
Enters shadow 23:16:15 11° 58° (ENE) 2,062 5.2 -10.1°
